Home   Weather   Wittmund   Past weeks

Flag for Germany Past Weather in Wittmund, Lower Saxony, Germany — Yesterday and Last 2 Weeks

Now
36 °F

Rain showers. Partly sunny.


Feels Like: 29 °F
Forecast: 35 / 49 °F
Wind: 8 mph from Northwest

Location: Wittmundhaven

Current Time: Apr 25, 2017 at 11:04:28 am

Latest Report: Apr 25, 2017 at 10:04 am


Visibility: 2 mi

Pressure: 29.62 "Hg

Humidity: 93%

Dew Point: 34 °F

Location of WittmundLocation

Past Weather in Wittmund — Graph

°F

Wittmund Temperature Yesterday

Maximum temperature yesterday: 52 °F (at 3:20 pm)
Minimum temperature yesterday: 37 °F (at 12:20 am)
Average temperature yesterday: 44 °F

High & Low Weather Summary for the Past Weeks

 TemperatureHumidityPressure
High55 °F (Apr 21, 1:20 pm)100% (Apr 13, 3:20 am)30.63 "Hg (Apr 13, 3:20 am)
Low27 °F (Apr 20, 6:20 am)42% (Apr 19, 6:20 pm)29.59 "Hg (Apr 25, 4:34 am)
Average44 °F76%30.11 "Hg
* Reported Apr 10 8:20 am — Apr 25 8:20 am, Wittmund, Weather by CustomWeather, © 2017

Note: Actual official high and low records may vary slightly from our data, if they occured in-between our weather recording intervals... More about our weather records

Advertising

Wittmund Weather History for the Previous 24 Hours

Scroll right to see more
 ConditionsComfort  
Time TempWeatherWind HumidityBarometerVisibility
8:20 am
Tue, Apr 25
39 °FPassing clouds.15 mph81%29.59 "HgN/A
7:56 am41 °FSprinkles. Partly sunny.14 mph81%29.59 "HgN/A
7:20 am39 °FPassing clouds.10 mph87%29.59 "HgN/A
6:20 am39 °FPassing clouds.7 mph87%29.59 "HgN/A
5:20 am39 °FLight rain. Passing clouds.13 mph93%29.59 "HgN/A
4:34 am41 °FFog.6 mph93%29.59 "Hg2 mi
3:20 am39 °FPassing clouds.3 mph100%29.62 "Hg4 mi
2:20 am39 °FPartly cloudy.5 mph93%29.65 "Hg5 mi
1:20 am39 °FPartly cloudy.5 mph100%29.68 "Hg5 mi
12:20 am41 °FPartly cloudy.3 mph93%29.68 "Hg5 mi
11:20 pm
Mon, Apr 24
41 °FPassing clouds.3 mph93%29.71 "Hg5 mi
11:03 pm41 °FPassing clouds.3 mph93%29.71 "Hg5 mi
10:20 pm41 °FDrizzle. Fog.1 mph93%29.74 "Hg3 mi
9:20 pm43 °FLight rain. Fog.2 mph93%29.74 "Hg3 mi
8:20 pm43 °FLight rain. Partly sunny.2 mph93%29.77 "Hg5 mi
7:20 pm43 °FLight rain. Partly sunny.6 mph93%29.77 "HgN/A
6:20 pm45 °FPartly sunny.7 mph87%29.80 "HgN/A
5:20 pm46 °FDrizzle. Broken clouds.12 mph82%29.80 "HgN/A
4:46 pm46 °FPartly sunny.13 mph82%29.80 "HgN/A
4:20 pm48 °FPartly sunny.16 mph76%29.80 "HgN/A
3:20 pm52 °FPartly sunny.21 mph72%29.80 "HgN/A
2:20 pm50 °FPartly sunny.23 mph76%29.83 "HgN/A
1:20 pm50 °FPartly sunny.21 mph76%29.83 "HgN/A
12:20 pm50 °FPartly sunny.18 mph76%29.83 "HgN/A
11:20 am48 °FDrizzle. Partly sunny.15 mph76%29.86 "HgN/A
Weather by CustomWeather, © 2017

See weather overviewHow to use our weather pages